Regional Weather Roundup
Issued by NWS

Home | Current Version | Previous Version | Text Only | Print | Product List | Glossary On
Versions: 1 2 3 4 5 6 7 8 9 10 11 12 13 14 15 16 17 18 19 20 21 22 23 24 25 26 27 28 29 30 31 32 33 34 35 36 37 38 39 40 41 42 43 44 45 46 47 48 49 50
000
ASUS43 KLOT 230906
RWRIL

ILLINOIS REGIONAL WEATHER ROUNDUP
NATIONAL WEATHER SERVICE CHICAGO/ROMEOVILLE IL
400 AM CDT WED JUL 23 2014

NOTE: "FAIR" INDICATES FEW OR NO CLOUDS BELOW 12,000 FEET WITH NO
SIGNIFICANT WEATHER AND/OR OBSTRUCTIONS TO VISIBILITY.

* THESE STATIONS ARE NOT UNDER NWS QUALITY CONTROL. THEY ALSO MAY NOT
  REPORT WEATHER SUCH AS PRECIPITATION OR FOG.

ILZ001-002-007-009-015-016-024-231000-
NORTHWEST ILLINOIS

CITY           SKY/WX    TMP DP  RH WIND       PRES   REMARKS
MOLINE         CLEAR     73  65  75 N7        30.07R
STERLING*      CLEAR     70  64  83 NE9       30.08R
SAVANNA*       CLEAR     70  62  76 N7        30.09S
$$

ILZ003-004-008-010-011-017-018-231000-
NORTH CENTRAL ILLINOIS

CITY           SKY/WX    TMP DP  RH WIND       PRES   REMARKS
ROCKFORD       MOCLDY    67  60  78 E10       30.12S
FREEPORT*      CLEAR     64  60  86 NE10      30.12S
ROCHELLE*      MOCLDY    67  60  77 NE16G24   30.09R
DE KALB*       MOCLDY    64  58  79 N17       30.09S
PERU*          PTCLDY    73  65  74 NE14G21   30.05R
$$

ILZ005-006-012>014-019>023-231000-
NORTHEAST ILLINOIS

CITY           SKY/WX    TMP DP  RH WIND       PRES   REMARKS
CHICAGO-OHARE  PTCLDY    66  53  63 N16G28    30.06F
CHICAGO-MIDWAY CLOUDY    68  59  73 N16G28    30.05S
AURORA         PTCLDY    66  58  75 NE14      30.07R
LANSING*       CLOUDY    66  59  78 N12G18    30.04S
JOLIET*        MOCLDY    66  57  73 N13G20    30.06R
WAUKEGAN       CLEAR     63  55  75 N15G24    30.06F
DUPAGE AIRPORT PTCLDY    64  57  78 NE13      30.06F
KANKAKEE*      CLOUDY    68  66  92 NE6       30.04R
WHEELING       PTCLDY    66  55  67 N14G22    30.08F
MORRIS*        PTCLDY    68  63  82 NE3       30.05R
ROMEOVILLE*    MOCLDY    65  57  75 NE18      30.05R
NORTHERLY ISL    N/A     65  57  75 N14         N/A
$$

LMZ740>746-231000-
SOUTHERN LAKE MICHIGAN

STATION/POSITION SKY/WX   TEMP    WIND        PRES    VSBY  WAVE
                          AIR SEA DIR/SP/G                  HT/PER
                          (F)     (DEG/KT/KT) (MB)    (MI)  (FT/S)
SOUTHERN BUOY              62 60  340/ 21/ 25 1016.6R         6/ 6
WAUKEGAN HARBOR            63      10/ 19/ 24 1019.0S
HARRISON CRIB              66     350/ 26/ 31   N/A
BURNHAM HARBOR             64     350/ 12/ 23   N/A
CALUMET HARBOR             66     340/ 12/ 18 1016.2R
MICHIGAN CITY              68     350/ 20/ 24   N/A
$$

ILZ025>027-034>036-040-047-049-050-058-095>099-231000-
WEST-CENTRAL ILLINOIS

CITY           SKY/WX    TMP DP  RH WIND       PRES   REMARKS
QUINCY         CLEAR     75  70  84 N13       30.05R
GALESBURG*     CLEAR     70  68  93 N7        30.06S
MACOMB*        CLEAR     72  70  93 N8        30.07R
JACKSONVILLE*  PTCLDY    78  76  93 N8        30.02S FOG     HX  80
PITTSFIELD*    CLEAR     78  73  84 N3        30.04R HX  80
$$

ILZ028>032-037-038-041>044-048-051>054-059>061-231000-
CENTRAL ILLINOIS

CITY           SKY/WX    TMP DP  RH WIND       PRES   REMARKS
PONTIAC        PTCLDY    73  72  94 NE12      30.03R
BLOOMINGTON    MOCLDY    77  73  87 N9        30.02S
PEORIA         PTCLDY    78  69  73 N8        30.02R HX  80
LACON*         MOCLDY    75  68  77 NE3       30.03R
LINCOLN*       MOCLDY    78  74  87 CALM      29.98S HX  81
SPRINGFIELD    MOCLDY    78  73  84 W5        30.01R HX  81
TAYLORVILLE    CLOUDY    72  70  94 CALM      30.00S
$$

ILZ033-039-045-046-055>057-062-063-231000-
EAST-CENTRAL ILLINOIS

CITY           SKY/WX    TMP DP  RH WIND       PRES   REMARKS
CHAMPAIGN      CLOUDY    74  70  87 W6        30.01S
RANTOUL*       MOCLDY    75  69  82 CALM      30.01S
MATTOON        CLOUDY    76  68  76 W5        30.00R
PARIS*         CLOUDY    73  70  92 CALM      30.01S
$$

ILZ079-100>102-231000-
SOUTHWEST ILLINOIS

CITY           SKY/WX    TMP DP  RH WIND       PRES   REMARKS
ALTON          MOCLDY    77  74  91 CALM      30.00S
CAHOKIA*       CLOUDY    79  71  76 SW5       29.99S HX  82
SPARTA*        CLOUDY    75  68  78 SW3       30.02S
$$

ILZ064>066-069>071-074>076-080>082-084>086-088>090-092>094-231000-
SOUTH-CENTRAL ILLINOIS

CITY           SKY/WX    TMP DP  RH WIND       PRES   REMARKS
CARBONDALE     CLOUDY    74  68  81 W5        30.02F
CAIRO*         PTCLDY    71  68  91 CALM      30.03F FOG
MARION         MOCLDY    75  70  83 SW5       30.02S
MT. VERNON     CLOUDY    73  66  78 SW6       30.01F
CENTRALIA*     CLOUDY    75  66  73 SW5       30.01R
SALEM*         CLOUDY    77  71  80 SW5       30.01R
METROPOLIS*      N/A     69  67  95 CALM      30.03S FOG
$$

ILZ067-068-072-073-078-083-087-091-231000-
SOUTHEAST ILLINOIS

CITY           SKY/WX    TMP DP  RH WIND       PRES   REMARKS
FAIRFIELD*     MOCLDY    73  72  94 SW5       30.00S
HARRISBURG*    FOG       66  66 100 CALM      30.03S VSB 3/4
ROBINSON*      CLOUDY    73  71  95 CALM      30.01S FOG
CARMI*         PTCLDY    68  67  98 CALM      30.01S FOG
$$

ABBREVIATIONS USED IN REMARKS
   TC - TEMPERATURE IN CELSIUS
  WCI - WIND CHILL INDEX
   HX - HEAT INDEX
  VSB - VISIBILITY
$$




USA.gov is the U.S. government's official web portal to all federal, state and local government web resources and services.